[[{"header":{"parameterUnit":"m.s-1","parameterCategory":1,"la1":30.2991,"la2":30.254,"lo1":-89.0895,"lo2":-89.0444,"dy":0.0017,"dx":0.0017,"nx":28,"ny":28,"refTime":"2025-03-11T21:00:00:Z","depth":0,"parameterNumber":2,"parameterNumberName":"U-component_of_WINDS"},"data":[0,0,0,0,0,0,0,0,0,0,0,0,0,0,0,0,0,0,0,0,0,0,0,0,0,0,0,0,0,0,0,0,0,0,0,0,0,0,0,0,0,0,0,0,0,0,0,0,0,0,0,0,0,0,0,0,0,0,-1.4067,-1.4067,0,-1.4072,-1.4072,-1.4072,-1.4067,-1.4067,-1.4067,-1.4067,-1.407,-1.4071,-1.4071,0,0,0,0,0,0,0,0,0,0,0,0,0,-1.4051,-1.4051,-1.4067,-1.4067,-1.4067,-1.4072,-1.4072,-1.4072,-1.4067,-1.4067,-1.4067,-1.4067,-1.407,-1.407,-1.4071,0,0,0,0,0,0,0,0,0,0,0,0,0,-1.4057,-1.4051,-1.4067,-1.4066,-1.4065,-1.4072,-1.4072,-1.4072,-1.4068,-1.4067,-1.4067,-1.4067,-1.407,-1.407,-1.4071,-1.4079,0,0,-1.4072,-1.4072,0,0,0,0,0,0,0,0,-1.4057,-1.4058,-1.4066,-1.4066,-1.4066,-1.4069,-1.4068,-1.4074,-1.4068,-1.4067,-1.4067,-1.4067,-1.407,-1.407,-1.4072,-1.4079,-1.4079,-1.4072,-1.4072,-1.4072,-1.4073,0,0,0,0,0,0,0,-1.4056,-1.4057,-1.4069,-1.4066,-1.4066,-1.4064,-1.4064,-1.4069,-1.407,-1.4067,-1.4066,-1.4067,-1.407,-1.4071,-1.4072,-1.4079,-1.4072,-1.4072,-1.4073,-1.4073,-1.4091,-1.4091,0,0,0,0,0,0,-1.4056,-1.4057,-1.4069,-1.4069,-1.4061,-1.4064,-1.4065,-1.4068,-1.407,-1.407,-1.4067,-1.4067,-1.4071,-1.4071,-1.4072,-1.408,-1.4072,-1.4073,-1.4073,-1.409,-1.4091,-1.4091,0,0,0,0,0,0,-1.4056,-1.4058,-1.4069,-1.4063,-1.4064,-1.4065,-1.4068,-1.4068,-1.407,-1.407,-1.407,-1.4069,-1.4071,-1.4071,-1.4077,-1.408,-1.4073,-1.4073,-1.409,-1.409,-1.4091,-1.4097,0,0,0,0,0,0,-1.4056,-1.4057,-1.4061,-1.4063,-1.4065,-1.4074,-1.4069,-1.4069,-1.4071,-1.407,-1.4072,-1.4072,-1.4071,-1.4076,-1.4077,-1.408,-1.4074,-1.409,-1.409,-1.4091,-1.4096,-1.4097,-1.4098,0,0,0,0,0,-1.4055,-1.4063,-1.4062,-1.4063,-1.407,-1.4075,-1.4075,-1.4074,-1.4071,-1.4074,-1.4074,-1.4072,-1.408,-1.4077,-1.4078,-1.4081,-1.409,-1.409,-1.4091,-1.4096,-1.4097,-1.4098,0,0,0,0,0,0,-1.4061,-1.4063,-1.4062,-1.407,-1.4072,-1.4074,-1.4078,-1.4076,-1.4078,-1.4078,-1.4076,-1.4076,-1.4082,-1.4082,-1.4079,-1.4088,-1.4084,-1.4085,-1.4088,-1.4089,-1.409,-1.4089,-1.4074,0,0,0,0,0,-1.4064,-1.4068,-1.4069,-1.4077,-1.4078,-1.4078,-1.408,-1.4079,-1.408,-1.4081,-1.4082,-1.4083,-1.4085,-1.4087,-1.409,-1.4096,-1.4096,-1.4099,-1.41,-1.4101,-1.4101,-1.4103,-1.4104,-1.4093,-1.4093,-1.4093,0,0,-1.4068,-1.407,-1.4073,-1.4078,-1.4079,-1.4083,-1.4078,-1.4083,-1.4085,-1.4082,-1.4087,-1.4087,-1.4088,-1.4093,-1.4096,-1.4094,-1.4104,-1.4101,-1.4102,-1.4102,-1.4104,-1.4105,-1.4106,-1.4093,-1.4093,-1.4093,0,0,-1.4079,-1.4081,-1.4087,-1.4088,-1.409,-1.409,-1.4091,-1.4093,-1.4093,-1.4098,-1.4094,-1.4097,-1.4102,-1.4102,-1.4103,-1.4112,-1.4109,-1.4113,-1.4118,-1.412,-1.4121,-1.4121,-1.4124,-1.4124,-1.4113,-1.4113,-1.4113,0,-1.4085,-1.4091,-1.409,-1.4095,-1.4096,-1.4093,-1.4098,-1.4099,-1.4102,-1.4102,-1.41,-1.4105,-1.4106,-1.4111,-1.4113,-1.4114,-1.4114,-1.4113,-1.4121,-1.4121,-1.4122,-1.4124,-1.4125,-1.4114,-1.4114,-1.4114,-1.4114,0,-1.4097,-1.4102,-1.4106,-1.4108,-1.411,-1.4115,-1.4114,-1.4116,-1.4114,-1.4113,-1.4118,-1.4118,-1.412,-1.4121,-1.412,-1.4125,-1.4124,-1.4121,-1.4117,-1.4124,-1.4125,-1.4126,-1.4114,-1.4114,-1.4114,-1.4114,0,0,-1.4113,-1.4114,-1.4115,-1.4116,-1.4117,-1.412,-1.4124,-1.4126,-1.4127,-1.4128,-1.413,-1.4134,-1.4131,-1.4132,-1.413,-1.4132,-1.4138,-1.4129,-1.4129,-1.413,-1.4143,-1.4144,-1.4145,-1.4136,-1.4136,-1.4136,-1.4142,0,-1.4123,-1.413,-1.4128,-1.4135,-1.4138,-1.4134,-1.4137,-1.4138,-1.4137,-1.4139,-1.4137,-1.4139,-1.4136,-1.4136,-1.4138,-1.4137,-1.414,-1.4136,-1.4137,-1.4137,-1.4137,-1.4146,-1.4148,-1.4154,-1.4143,-1.4143,-1.4143,0,-1.4136,-1.4137,-1.4144,-1.4144,-1.4145,-1.4148,-1.4149,-1.4151,-1.415,-1.4149,-1.415,-1.4147,-1.415,-1.4146,-1.4148,-1.4146,-1.4146,-1.4145,-1.4145,-1.4145,-1.414,-1.4146,-1.4156,-1.4157,-1.4145,-1.4144,-1.4144,0,-1.4145,-1.4149,-1.4153,-1.4154,-1.4153,-1.4155,-1.4155,-1.4155,-1.4155,-1.4156,-1.4156,-1.4157,-1.4157,-1.4157,-1.4154,-1.4152,-1.4157,-1.4153,-1.4155,-1.4155,-1.4156,-1.4156,-1.4166,-1.4157,-1.4157,-1.4157,-1.4157,0,-1.4156,-1.416,-1.4157,-1.416,-1.4164,-1.4161,-1.4165,-1.4164,-1.4164,-1.4165,-1.4162,-1.4163,-1.416,-1.416,-1.4158,-1.416,-1.416,-1.4159,-1.4158,-1.4159,-1.4159,-1.4159,-1.4158,-1.4158,-1.4157,-1.4157,-1.4157,0,-1.4167,-1.4165,-1.4169,-1.4168,-1.4168,-1.4171,-1.417,-1.4171,-1.417,-1.4172,-1.4172,-1.417,-1.417,-1.4167,-1.4167,-1.4166,-1.4168,-1.4167,-1.4168,-1.4168,-1.417,-1.417,-1.418,-1.4181,-1.4172,-1.4172,-1.4172,0,-1.4173,-1.4176,-1.4176,-1.4176,-1.4176,-1.4178,-1.4179,-1.4176,-1.4176,-1.4176,-1.4177,-1.4177,-1.4177,-1.4178,-1.4176,-1.4175,-1.4174,-1.4177,-1.4174,-1.4174,-1.4173,-1.4173,-1.4172,-1.4178,-1.4178,-1.4178,-1.4178,0,-1.4185,-1.4184,-1.4185,-1.4186,-1.4187,-1.4187,-1.4187,-1.4188,-1.4184,-1.4185,-1.4186,-1.4186,-1.4185,-1.4185,-1.4184,-1.4183,-1.418,-1.418,-1.418,-1.4181,-1.4181,-1.418,-1.417,-1.4179,-1.4179,-1.4179,-1.4179,-1.4179,-1.4194,-1.4196,-1.4195,-1.4196,-1.4196,-1.4195,-1.4197,-1.4195,-1.4196,-1.4195,-1.4193,-1.4194,-1.4192,-1.4191,-1.4189,-1.4189,-1.4187,-1.4188,-1.4188,-1.4188,-1.4189,-1.4181,-1.4189,-1.4189,-1.4189,-1.4189,-1.4189,0,-1.4205,-1.4204,-1.4205,-1.4205,-1.4205,-1.4202,-1.4202,-1.4202,-1.4203,-1.4202,-1.4202,-1.4201,-1.4201,-1.4198,-1.4197,-1.4197,-1.4196,-1.4197,-1.4197,-1.4197,-1.4191,-1.419,-1.4198,-1.4198,-1.4198,-1.4198,-1.4198,-1.4198,-1.421,-1.4213,-1.4211,-1.4213,-1.4212,-1.4213,-1.4213,-1.4212,-1.4211,-1.4211,-1.4211,-1.4209,-1.4207,-1.4206,-1.4205,-1.4204,-1.4203,-1.4205,-1.4203,-1.4198,-1.4197,-1.4196,-1.4196,-1.4205,-1.4205,-1.4209,-1.4209,-1.4209]},{"header":{"parameterUnit":"m.s-1","parameterCategory":1,"la1":30.2991,"la2":30.254,"lo1":-89.0895,"lo2":-89.0444,"dy":0.0017,"dx":0.0017,"nx":28,"ny":28,"refTime":"2025-03-11T21:00:00:Z","depth":0,"parameterNumber":3,"parameterNumberName":"V-component_of_WINDS"},"data":[0,0,0,0,0,0,0,0,0,0,0,0,0,0,0,0,0,0,0,0,0,0,0,0,0,0,0,0,0,0,0,0,0,0,0,0,0,0,0,0,0,0,0,0,0,0,0,0,0,0,0,0,0,0,0,0,0,0,3.1168,3.1168,0,3.124,3.1241,3.1242,3.1269,3.1269,3.1269,3.1269,3.1343,3.1345,3.1347,0,0,0,0,0,0,0,0,0,0,0,0,0,3.1053,3.1055,3.1168,3.1168,3.1169,3.124,3.1241,3.1242,3.127,3.1269,3.1269,3.1269,3.1342,3.1345,3.1347,0,0,0,0,0,0,0,0,0,0,0,0,0,3.1112,3.1056,3.1167,3.1192,3.1195,3.124,3.1241,3.1242,3.127,3.1269,3.1269,3.1269,3.1341,3.1344,3.1348,3.1374,0,0,3.1357,3.1359,0,0,0,0,0,0,0,0,3.1109,3.1116,3.1187,3.119,3.1193,3.1245,3.1228,3.1286,3.127,3.1241,3.1269,3.1268,3.1311,3.1316,3.1331,3.1377,3.1381,3.1358,3.136,3.1361,3.1362,0,0,0,0,0,0,0,3.1104,3.1113,3.1196,3.1188,3.1192,3.1199,3.1207,3.1239,3.1277,3.1244,3.1246,3.1254,3.1312,3.1327,3.1333,3.1382,3.1358,3.1361,3.1363,3.1364,3.1455,3.1456,0,0,0,0,0,0,3.1096,3.111,3.1194,3.1198,3.1149,3.1201,3.121,3.1229,3.1276,3.1283,3.1254,3.1255,3.1322,3.1329,3.1335,3.137,3.1361,3.1364,3.1366,3.1455,3.1455,3.1456,0,0,0,0,0,0,3.1094,3.1104,3.1191,3.1155,3.1166,3.1204,3.1225,3.1231,3.1246,3.1285,3.1291,3.1263,3.1322,3.1331,3.1364,3.1373,3.1366,3.1369,3.1454,3.1455,3.1455,3.1439,0,0,0,0,0,0,3.109,3.1103,3.1113,3.1155,3.1168,3.1219,3.1225,3.1232,3.1251,3.1253,3.1294,3.1301,3.1322,3.1359,3.1368,3.1377,3.1371,3.1453,3.1454,3.1455,3.1439,3.1439,3.1439,0,0,0,0,0,3.1086,3.1105,3.1113,3.1123,3.1182,3.1219,3.1227,3.1252,3.1252,3.1263,3.1288,3.13,3.1371,3.1363,3.1372,3.1383,3.1453,3.1454,3.1455,3.1439,3.1439,3.1439,0,0,0,0,0,0,3.1063,3.1111,3.112,3.1153,3.1182,3.1224,3.1238,3.1251,3.128,3.128,3.1309,3.1318,3.135,3.137,3.136,3.1412,3.1413,3.1416,3.1397,3.1398,3.1398,3.1392,3.1374,0,0,0,0,0,3.1061,3.1088,3.1128,3.1154,3.1168,3.12,3.1218,3.1234,3.1265,3.1277,3.1305,3.1334,3.1363,3.1382,3.141,3.1442,3.1452,3.1455,3.1455,3.1455,3.1457,3.1476,3.1478,3.1459,3.1459,3.1459,0,0,3.1059,3.1088,3.1103,3.115,3.1174,3.1201,3.121,3.1238,3.1258,3.1281,3.1315,3.1336,3.1371,3.1404,3.142,3.1422,3.1464,3.1456,3.1456,3.1458,3.1477,3.1479,3.148,3.146,3.146,3.146,0,0,3.1068,3.1093,3.1117,3.1141,3.1178,3.12,3.1205,3.1246,3.1261,3.1295,3.1313,3.1338,3.1387,3.1412,3.143,3.145,3.1462,3.1459,3.1459,3.1478,3.1479,3.1481,3.1488,3.149,3.1461,3.1461,3.1461,0,3.106,3.1101,3.1127,3.1155,3.1175,3.1198,3.1222,3.1245,3.1289,3.1302,3.1303,3.1367,3.1392,3.1431,3.1436,3.145,3.1458,3.1454,3.1477,3.1478,3.148,3.1488,3.149,3.146,3.146,3.146,3.146,0,3.109,3.1118,3.1133,3.1176,3.1198,3.1224,3.1254,3.1273,3.1288,3.131,3.1345,3.1376,3.1412,3.1423,3.1437,3.1465,3.1465,3.1471,3.1473,3.1481,3.1488,3.1491,3.1459,3.1459,3.146,3.146,0,0,3.1085,3.1143,3.1148,3.1168,3.1211,3.1233,3.1261,3.1296,3.1312,3.1342,3.1366,3.1408,3.1414,3.1435,3.1453,3.1469,3.1484,3.1474,3.1475,3.1475,3.1516,3.1511,3.1514,3.1492,3.1493,3.1493,3.1514,0,3.11,3.115,3.1175,3.1214,3.1241,3.1263,3.1287,3.1316,3.1337,3.1363,3.1387,3.1417,3.1422,3.1436,3.1453,3.1478,3.1492,3.1477,3.1515,3.1516,3.1505,3.1518,3.1513,3.153,3.1517,3.1517,3.1518,0,3.1124,3.1154,3.1196,3.1237,3.1249,3.127,3.1305,3.1329,3.1363,3.1378,3.1402,3.142,3.145,3.1449,3.1491,3.148,3.1497,3.1512,3.1514,3.1518,3.1517,3.1523,3.1537,3.1539,3.1522,3.1522,3.1522,0,3.1117,3.1168,3.12,3.1217,3.1264,3.1279,3.1299,3.1333,3.1353,3.1383,3.1397,3.1431,3.1449,3.1475,3.1501,3.1499,3.1541,3.1543,3.1554,3.1553,3.1562,3.1561,3.1578,3.1572,3.1572,3.1572,3.1572,0,3.1131,3.1156,3.1198,3.1217,3.1246,3.1275,3.1302,3.1325,3.1354,3.1379,3.14,3.1423,3.1456,3.1483,3.1504,3.1536,3.1544,3.1557,3.1562,3.1555,3.1554,3.1567,3.1566,3.1573,3.1573,3.1573,3.1573,0,3.1128,3.1157,3.1193,3.1236,3.1247,3.1266,3.1303,3.1323,3.1346,3.1377,3.1386,3.1422,3.1455,3.1484,3.1527,3.1541,3.1574,3.158,3.1563,3.1566,3.1575,3.1574,3.1602,3.1607,3.1597,3.1597,3.1597,0,3.1135,3.1155,3.12,3.1218,3.1238,3.1267,3.1288,3.1317,3.1338,3.1379,3.1394,3.1428,3.1458,3.1509,3.1539,3.1573,3.158,3.1588,3.1586,3.1578,3.1581,3.1579,3.1582,3.1588,3.1588,3.1588,3.1588,0,3.1144,3.1158,3.1187,3.1222,3.1246,3.1275,3.1304,3.1318,3.1353,3.1375,3.1409,3.1432,3.1477,3.1511,3.1548,3.157,3.1585,3.1588,3.1593,3.1585,3.1575,3.1581,3.1563,3.1587,3.1587,3.1587,3.1587,3.1587,3.1147,3.1166,3.1201,3.1233,3.1258,3.1285,3.1306,3.1332,3.1361,3.14,3.1416,3.1451,3.1485,3.1536,3.1558,3.1586,3.1588,3.1595,3.1596,3.1598,3.1597,3.157,3.1593,3.1593,3.1593,3.1593,3.1593,0,3.1158,3.1182,3.1211,3.1251,3.1277,3.1289,3.1322,3.1343,3.1373,3.1404,3.1433,3.1472,3.1506,3.1539,3.1574,3.159,3.1598,3.1599,3.1598,3.1603,3.1592,3.1585,3.1592,3.1592,3.1592,3.1592,3.1592,3.1592,3.1166,3.1199,3.1217,3.1263,3.1287,3.1321,3.1339,3.1365,3.1389,3.1433,3.1461,3.1482,3.1514,3.1552,3.1584,3.1593,3.1605,3.1604,3.1614,3.1604,3.1603,3.1603,3.1597,3.1606,3.1606,3.1623,3.1623,3.1623]}]]